Location: Colebrook
(42.0017°N, 73.0973°W)
Time: 04:45:54
(UTC-04:00)

SR - Visible Passes

Search period start: 21 October 2021 00:00
Search period end: 31 October 2021 00:00
Orbit: 582 x 872 km, 66.7° (Epoch: 20 October)

Date Brightness Start Highest point End Pass type
(mag) Time Alt. Az. Time Alt. Az. Time Alt. Az.
21 Oct ? 18:37:32 10° N 18:40:46 21° NE 18:43:53 10° E visible
21 Oct ? 20:18:56 10° NW 20:22:57 42° WSW 20:23:20 41° SW visible
22 Oct ? 19:28:56 10° NNW 19:33:12 82° ENE 19:35:44 24° SE visible
23 Oct ? 18:39:19 10° NNW 18:43:17 37° NE 18:47:16 10° ESE visible
23 Oct ? 20:21:51 10° WNW 20:25:01 21° WSW 20:27:58 11° SSW visible
24 Oct ? 19:31:20 10° NW 19:35:25 46° WSW 19:39:32 10° S visible
25 Oct ? 18:41:24 10° NNW 18:45:39 76° ENE 18:49:56 10° SE visible
26 Oct ? 19:34:11 10° WNW 19:37:30 22° WSW 19:40:52 10° SSW visible
27 Oct ? 18:43:45 10° NW 18:47:53 51° WSW 18:52:04 10° SSE visible
28 Oct ? 19:38:29 10° W 19:39:29 11° WSW 19:40:29 10° WSW visible
29 Oct ? 18:46:31 10° NW 18:49:59 24° WSW 18:53:30 10° SSW visible
